[[{"header":{"parameterUnit":"m.s-1","parameterCategory":1,"la1":30.2991,"la2":30.254,"lo1":-89.0895,"lo2":-89.0444,"dy":0.0017,"dx":0.0017,"nx":28,"ny":28,"refTime":"2024-12-17T09:00:00:Z","depth":0,"parameterNumber":2,"parameterNumberName":"U-component_of_WINDS"},"data":[0,0,0,0,0,0,0,0,0,0,0,0,0,0,0,0,0,0,0,0,0,0,0,0,0,0,0,0,0,0,0,0,0,0,0,0,0,0,0,0,0,0,0,0,0,0,0,0,0,0,0,0,0,0,0,0,0,0,-1.167,-1.167,0,-1.1656,-1.1656,-1.1656,-1.1591,-1.159,-1.1588,-1.1587,-1.1575,-1.1576,-1.1577,0,0,0,0,0,0,0,0,0,0,0,0,0,-1.1642,-1.1643,-1.167,-1.167,-1.1669,-1.1657,-1.1656,-1.1656,-1.1592,-1.159,-1.1588,-1.1586,-1.1575,-1.1576,-1.1577,0,0,0,0,0,0,0,0,0,0,0,0,0,-1.1644,-1.1643,-1.167,-1.1636,-1.1633,-1.1657,-1.1656,-1.1656,-1.1592,-1.159,-1.1588,-1.1585,-1.1574,-1.1576,-1.1578,-1.1634,0,0,-1.1583,-1.1584,0,0,0,0,0,0,0,0,-1.1644,-1.1645,-1.1641,-1.1638,-1.1635,-1.1623,-1.1642,-1.1649,-1.1593,-1.1608,-1.1587,-1.1584,-1.1593,-1.1593,-1.1596,-1.1633,-1.1633,-1.1583,-1.1584,-1.1585,-1.1585,0,0,0,0,0,0,0,-1.1644,-1.1645,-1.1665,-1.1641,-1.1637,-1.1622,-1.162,-1.1643,-1.1614,-1.1606,-1.1601,-1.1601,-1.1591,-1.1594,-1.1595,-1.1633,-1.1583,-1.1584,-1.1585,-1.1586,-1.1718,-1.172,0,0,0,0,0,0,-1.1648,-1.1645,-1.1665,-1.1664,-1.1634,-1.1624,-1.1622,-1.1629,-1.1613,-1.1608,-1.1603,-1.1598,-1.1593,-1.1593,-1.1594,-1.166,-1.1585,-1.1586,-1.1587,-1.1715,-1.1718,-1.1721,0,0,0,0,0,0,-1.1648,-1.165,-1.1666,-1.1653,-1.1654,-1.1627,-1.1636,-1.163,-1.1633,-1.161,-1.1605,-1.1611,-1.1591,-1.1592,-1.1625,-1.1659,-1.1587,-1.1588,-1.1712,-1.1716,-1.1719,-1.1793,0,0,0,0,0,0,-1.1647,-1.1651,-1.1671,-1.1654,-1.1655,-1.1696,-1.1638,-1.1632,-1.1636,-1.163,-1.1617,-1.1613,-1.1589,-1.1623,-1.1627,-1.166,-1.159,-1.1709,-1.1714,-1.1718,-1.1787,-1.1798,-1.1808,0,0,0,0,0,-1.1646,-1.1692,-1.1673,-1.1675,-1.168,-1.1698,-1.1698,-1.167,-1.1639,-1.166,-1.1646,-1.1613,-1.1654,-1.1627,-1.163,-1.1665,-1.1707,-1.1712,-1.1718,-1.1782,-1.1796,-1.1808,0,0,0,0,0,0,-1.1715,-1.169,-1.1667,-1.1709,-1.1706,-1.1687,-1.1712,-1.1685,-1.1691,-1.1685,-1.1649,-1.1647,-1.1685,-1.1678,-1.1648,-1.1719,-1.1675,-1.1682,-1.1723,-1.1736,-1.1746,-1.1748,-1.1591,0,0,0,0,0,-1.1734,-1.175,-1.1728,-1.1767,-1.1766,-1.174,-1.1746,-1.1725,-1.172,-1.1719,-1.1706,-1.1704,-1.1716,-1.1725,-1.1735,-1.1785,-1.1782,-1.1811,-1.1821,-1.183,-1.1837,-1.1864,-1.1877,-1.1739,-1.1739,-1.1739,0,0,-1.1776,-1.1764,-1.1776,-1.178,-1.1775,-1.1793,-1.1739,-1.176,-1.1774,-1.1722,-1.1753,-1.1744,-1.1739,-1.1781,-1.1798,-1.1776,-1.1874,-1.1837,-1.1845,-1.1846,-1.1871,-1.1884,-1.1896,-1.1743,-1.1742,-1.1742,0,0,-1.186,-1.1853,-1.1885,-1.1881,-1.1874,-1.1856,-1.1864,-1.1849,-1.1841,-1.1871,-1.1833,-1.1849,-1.1871,-1.1869,-1.1871,-1.1956,-1.1927,-1.196,-1.2016,-1.2043,-1.2054,-1.2063,-1.2095,-1.2107,-1.1967,-1.1967,-1.1967,0,-1.1913,-1.1938,-1.1905,-1.1929,-1.1933,-1.1886,-1.192,-1.1917,-1.1915,-1.1919,-1.1893,-1.192,-1.1913,-1.1955,-1.1976,-1.1978,-1.1988,-1.1962,-1.2055,-1.2064,-1.2072,-1.2102,-1.2114,-1.1971,-1.1971,-1.197,-1.197,0,-1.2003,-1.2022,-1.2049,-1.2047,-1.2053,-1.2082,-1.2054,-1.2065,-1.2043,-1.2028,-1.206,-1.205,-1.2058,-1.2066,-1.2044,-1.2105,-1.2091,-1.2061,-1.2016,-1.209,-1.2118,-1.2129,-1.1977,-1.1976,-1.1974,-1.1973,0,0,-1.2131,-1.2111,-1.2122,-1.2121,-1.211,-1.2124,-1.2151,-1.2158,-1.2169,-1.2168,-1.2191,-1.2211,-1.2182,-1.2185,-1.2163,-1.2186,-1.2256,-1.2153,-1.2152,-1.2174,-1.2324,-1.2349,-1.2362,-1.2236,-1.2238,-1.224,-1.2325,0,-1.2213,-1.2258,-1.2229,-1.2279,-1.2296,-1.2252,-1.2276,-1.2272,-1.2259,-1.2273,-1.2258,-1.2273,-1.2234,-1.2236,-1.2257,-1.2243,-1.2286,-1.2236,-1.2259,-1.226,-1.2263,-1.2377,-1.2402,-1.2483,-1.2336,-1.2338,-1.2339,0,-1.2315,-1.2319,-1.237,-1.2357,-1.2363,-1.2385,-1.239,-1.2403,-1.2398,-1.2387,-1.2391,-1.2363,-1.2389,-1.2344,-1.2381,-1.2348,-1.2355,-1.235,-1.2352,-1.2354,-1.2305,-1.2383,-1.2508,-1.2521,-1.2355,-1.2354,-1.2353,0,-1.2405,-1.2423,-1.2457,-1.2457,-1.2442,-1.2459,-1.2453,-1.2446,-1.2453,-1.2458,-1.2462,-1.247,-1.2474,-1.2481,-1.2457,-1.2426,-1.2498,-1.245,-1.2491,-1.2491,-1.2509,-1.2508,-1.2638,-1.2511,-1.2511,-1.2511,-1.251,0,-1.2501,-1.2534,-1.2497,-1.2518,-1.2554,-1.2521,-1.2559,-1.2549,-1.2543,-1.2562,-1.2524,-1.2543,-1.2509,-1.2524,-1.2505,-1.2539,-1.2541,-1.2534,-1.2529,-1.2538,-1.254,-1.2544,-1.2538,-1.2514,-1.2513,-1.2512,-1.2512,0,-1.2608,-1.2584,-1.2618,-1.2601,-1.2598,-1.2625,-1.2611,-1.263,-1.2615,-1.2639,-1.2643,-1.2619,-1.2635,-1.2611,-1.2624,-1.2612,-1.266,-1.2645,-1.2661,-1.2658,-1.27,-1.2697,-1.2838,-1.2856,-1.2716,-1.2718,-1.2719,0,-1.2671,-1.2696,-1.2682,-1.2692,-1.2688,-1.2704,-1.2711,-1.268,-1.2689,-1.2686,-1.2706,-1.2719,-1.2727,-1.2756,-1.274,-1.275,-1.2737,-1.2786,-1.2738,-1.2748,-1.274,-1.2739,-1.2742,-1.2796,-1.2798,-1.2799,-1.28,0,-1.2787,-1.2774,-1.2785,-1.2792,-1.2801,-1.2805,-1.2806,-1.2817,-1.2784,-1.2796,-1.2812,-1.2819,-1.2833,-1.2847,-1.2853,-1.2849,-1.282,-1.2815,-1.2825,-1.2836,-1.2845,-1.2842,-1.2689,-1.2812,-1.2811,-1.281,-1.2809,-1.2809,-1.2875,-1.2895,-1.2889,-1.2903,-1.29,-1.2903,-1.292,-1.2907,-1.292,-1.2928,-1.2909,-1.2931,-1.2926,-1.2932,-1.2931,-1.2948,-1.2926,-1.2941,-1.2945,-1.2949,-1.2957,-1.2841,-1.2948,-1.2948,-1.2948,-1.2947,-1.2947,0,-1.299,-1.2984,-1.2996,-1.3,-1.3011,-1.2981,-1.2982,-1.2994,-1.3012,-1.3011,-1.302,-1.304,-1.3053,-1.3039,-1.305,-1.3066,-1.3053,-1.307,-1.307,-1.3069,-1.2974,-1.2965,-1.308,-1.308,-1.308,-1.308,-1.308,-1.308,-1.3051,-1.3085,-1.3071,-1.3104,-1.3097,-1.3118,-1.3121,-1.3123,-1.3122,-1.3145,-1.3156,-1.3146,-1.314,-1.315,-1.3162,-1.3157,-1.3164,-1.3186,-1.3177,-1.3089,-1.3076,-1.3063,-1.3055,-1.3187,-1.3187,-1.3271,-1.3272,-1.3272]},{"header":{"parameterUnit":"m.s-1","parameterCategory":1,"la1":30.2991,"la2":30.254,"lo1":-89.0895,"lo2":-89.0444,"dy":0.0017,"dx":0.0017,"nx":28,"ny":28,"refTime":"2024-12-17T09:00:00:Z","depth":0,"parameterNumber":3,"parameterNumberName":"V-component_of_WINDS"},"data":[0,0,0,0,0,0,0,0,0,0,0,0,0,0,0,0,0,0,0,0,0,0,0,0,0,0,0,0,0,0,0,0,0,0,0,0,0,0,0,0,0,0,0,0,0,0,0,0,0,0,0,0,0,0,0,0,0,0,-0.6316,-0.6316,0,-0.6356,-0.6356,-0.6357,-0.6341,-0.634,-0.6339,-0.6338,-0.638,-0.6382,-0.6384,0,0,0,0,0,0,0,0,0,0,0,0,0,-0.6226,-0.6228,-0.6316,-0.6316,-0.6317,-0.6356,-0.6356,-0.6357,-0.6341,-0.634,-0.6339,-0.6338,-0.638,-0.6382,-0.6384,0,0,0,0,0,0,0,0,0,0,0,0,0,-0.6266,-0.6229,-0.6315,-0.6313,-0.6314,-0.6355,-0.6356,-0.6357,-0.6341,-0.634,-0.6338,-0.6337,-0.6379,-0.6382,-0.6385,-0.6431,0,0,-0.6394,-0.6395,0,0,0,0,0,0,0,0,-0.6263,-0.6269,-0.6313,-0.6314,-0.6314,-0.6342,-0.634,-0.6382,-0.6342,-0.6331,-0.6338,-0.6336,-0.6369,-0.6372,-0.6383,-0.6433,-0.6435,-0.6394,-0.6396,-0.6397,-0.6398,0,0,0,0,0,0,0,-0.6261,-0.6267,-0.6331,-0.6314,-0.6314,-0.6311,-0.6315,-0.6348,-0.6357,-0.6332,-0.6331,-0.6335,-0.6369,-0.638,-0.6384,-0.6436,-0.6394,-0.6397,-0.6399,-0.64,-0.6526,-0.6528,0,0,0,0,0,0,-0.6258,-0.6265,-0.633,-0.6333,-0.6285,-0.6313,-0.6318,-0.6334,-0.6357,-0.6359,-0.6337,-0.6335,-0.6376,-0.638,-0.6385,-0.6442,-0.6397,-0.64,-0.6402,-0.6525,-0.6527,-0.6528,0,0,0,0,0,0,-0.6256,-0.6264,-0.6329,-0.6299,-0.6306,-0.6317,-0.6335,-0.6336,-0.6347,-0.6361,-0.6362,-0.6347,-0.6375,-0.6381,-0.642,-0.6443,-0.6401,-0.6404,-0.6523,-0.6525,-0.6527,-0.6555,0,0,0,0,0,0,-0.6253,-0.6263,-0.6281,-0.6299,-0.6308,-0.6362,-0.6336,-0.6338,-0.6352,-0.635,-0.637,-0.6372,-0.6374,-0.6416,-0.6423,-0.6446,-0.6406,-0.6521,-0.6524,-0.6527,-0.6552,-0.6558,-0.6563,0,0,0,0,0,-0.625,-0.6287,-0.6282,-0.629,-0.633,-0.6364,-0.6369,-0.637,-0.6354,-0.6372,-0.6381,-0.6372,-0.6439,-0.642,-0.6428,-0.6453,-0.6519,-0.6523,-0.6526,-0.6549,-0.6557,-0.6563,0,0,0,0,0,0,-0.6272,-0.6289,-0.6284,-0.6328,-0.6344,-0.6361,-0.6384,-0.6377,-0.6399,-0.6396,-0.6397,-0.6401,-0.6442,-0.6451,-0.6429,-0.6499,-0.6477,-0.6482,-0.6492,-0.6499,-0.6504,-0.6501,-0.6409,0,0,0,0,0,-0.6281,-0.6307,-0.6321,-0.6358,-0.6367,-0.6374,-0.6388,-0.6388,-0.6405,-0.6412,-0.6423,-0.6441,-0.6466,-0.6483,-0.6506,-0.6553,-0.6557,-0.6574,-0.6579,-0.6584,-0.6589,-0.6614,-0.6622,-0.654,-0.654,-0.654,0,0,-0.6302,-0.6315,-0.6331,-0.6363,-0.6376,-0.6402,-0.638,-0.6409,-0.6429,-0.6417,-0.6454,-0.6463,-0.6482,-0.6525,-0.6545,-0.6534,-0.6612,-0.6588,-0.6591,-0.6594,-0.6619,-0.6626,-0.6633,-0.6542,-0.6542,-0.6541,0,0,-0.6354,-0.6365,-0.6398,-0.6411,-0.6431,-0.6435,-0.6443,-0.646,-0.6466,-0.6503,-0.6495,-0.6518,-0.6561,-0.6576,-0.6589,-0.6645,-0.6638,-0.6653,-0.6682,-0.6707,-0.6713,-0.6719,-0.674,-0.6747,-0.6657,-0.6657,-0.6657,0,-0.6377,-0.6416,-0.6416,-0.6445,-0.646,-0.6449,-0.6483,-0.6495,-0.6522,-0.6532,-0.652,-0.6574,-0.6586,-0.6632,-0.6646,-0.6657,-0.6666,-0.6651,-0.6712,-0.6718,-0.6723,-0.6743,-0.6751,-0.6659,-0.6659,-0.6659,-0.6658,0,-0.6444,-0.6472,-0.6496,-0.6521,-0.6538,-0.657,-0.6574,-0.6591,-0.6589,-0.6594,-0.6633,-0.6647,-0.6674,-0.6684,-0.6682,-0.6731,-0.6724,-0.6712,-0.669,-0.6733,-0.6752,-0.6759,-0.6662,-0.6661,-0.666,-0.666,0,0,-0.6512,-0.6536,-0.6545,-0.6556,-0.6577,-0.6598,-0.6629,-0.6654,-0.667,-0.6688,-0.6714,-0.6751,-0.674,-0.6754,-0.6754,-0.6776,-0.682,-0.6761,-0.6761,-0.6772,-0.6875,-0.6885,-0.6894,-0.6815,-0.6816,-0.6817,-0.6874,0,-0.6565,-0.6619,-0.6619,-0.6669,-0.6695,-0.6685,-0.6712,-0.6727,-0.6733,-0.6756,-0.6763,-0.6789,-0.6772,-0.6781,-0.6802,-0.681,-0.6841,-0.6806,-0.684,-0.6841,-0.6837,-0.6903,-0.6914,-0.6966,-0.6881,-0.6882,-0.6883,0,-0.6635,-0.6656,-0.6708,-0.6725,-0.6736,-0.676,-0.6783,-0.6805,-0.6823,-0.6825,-0.6842,-0.6837,-0.6869,-0.6845,-0.689,-0.6866,-0.688,-0.6886,-0.6888,-0.6892,-0.6866,-0.691,-0.6983,-0.6991,-0.6894,-0.6893,-0.6893,0,-0.668,-0.6721,-0.6757,-0.6767,-0.6788,-0.6805,-0.6814,-0.683,-0.6846,-0.6866,-0.6876,-0.69,-0.6914,-0.6933,-0.6935,-0.6918,-0.698,-0.6956,-0.6984,-0.6984,-0.6998,-0.6998,-0.7075,-0.7005,-0.7005,-0.7005,-0.7005,0,-0.6741,-0.6774,-0.6778,-0.6801,-0.6837,-0.6836,-0.6872,-0.688,-0.6895,-0.6919,-0.6911,-0.6934,-0.6936,-0.696,-0.6962,-0.6999,-0.7004,-0.7008,-0.7009,-0.701,-0.7009,-0.702,-0.7016,-0.7007,-0.7007,-0.7006,-0.7006,0,-0.6798,-0.6802,-0.6841,-0.6857,-0.6861,-0.6888,-0.6901,-0.6923,-0.6928,-0.6959,-0.6966,-0.6974,-0.7002,-0.7006,-0.7038,-0.704,-0.7084,-0.708,-0.7078,-0.7078,-0.7106,-0.7103,-0.7194,-0.7206,-0.7127,-0.7128,-0.7128,0,-0.6837,-0.6862,-0.688,-0.6895,-0.6905,-0.6931,-0.6946,-0.6946,-0.6963,-0.6985,-0.7004,-0.7031,-0.7052,-0.7097,-0.7106,-0.7131,-0.7128,-0.7158,-0.7132,-0.7132,-0.713,-0.7129,-0.7131,-0.7163,-0.7164,-0.7165,-0.7165,0,-0.6906,-0.6907,-0.6929,-0.6953,-0.6971,-0.699,-0.7007,-0.702,-0.7023,-0.7042,-0.707,-0.7086,-0.7119,-0.7146,-0.717,-0.718,-0.7174,-0.7173,-0.7181,-0.7183,-0.7181,-0.7184,-0.7093,-0.7171,-0.7171,-0.717,-0.717,-0.717,-0.6956,-0.6978,-0.6994,-0.7019,-0.7032,-0.7049,-0.707,-0.7077,-0.71,-0.7127,-0.7125,-0.7156,-0.7173,-0.7205,-0.7217,-0.7241,-0.7232,-0.7243,-0.7246,-0.7249,-0.7252,-0.7176,-0.7246,-0.7245,-0.7245,-0.7245,-0.7245,0,-0.7025,-0.7035,-0.7058,-0.7083,-0.7103,-0.7094,-0.7112,-0.713,-0.7157,-0.7173,-0.7194,-0.7227,-0.7253,-0.7263,-0.7289,-0.7306,-0.7304,-0.7313,-0.7313,-0.7315,-0.7259,-0.725,-0.7315,-0.7315,-0.7315,-0.7315,-0.7315,-0.7315,-0.7064,-0.7101,-0.7103,-0.7146,-0.7156,-0.7186,-0.7197,-0.7212,-0.7225,-0.7261,-0.7283,-0.7289,-0.7303,-0.733,-0.7353,-0.7356,-0.7366,-0.7377,-0.7378,-0.7326,-0.7319,-0.7312,-0.7304,-0.7379,-0.7379,-0.7432,-0.7433,-0.7433]}]]